Regional Weather Roundup
Issued by NWS Northern Indiana

Home | Current Version | Previous Version | Text Only | Print | Product List | Glossary Off
Versions: 1 2 3 4 5 6 7 8 9 10 11 12 13 14 15 16 17 18 19 20 21 22 23 24 25 26 27 28 29 30 31 32 33 34 35 36 37 38 39 40 41 42 43 44 45 46 47 48 49 50

000
ASUS43 KIWX 251400
RWRIWX

KIWX WEATHER ROUNDUP
NATIONAL WEATHER SERVICE NORTHERN INDIANA
1000 AM EDT WED MAY 25 2016

NOTE: "FAIR" INDICATES FEW OR NO CLOUDS BELOW 12,000 FEET WITH NO
SIGNIFICANT WEATHER AND/OR OBSTRUCTIONS TO VISIBILITY.

* THESE STATIONS ARE NOT UNDER NWS QUALITY CONTROL. THEY ALSO MAY NOT
  REPORT WEATHER SUCH AS PRECIPITATION OR FOG.

INZ001>027-251500-
NORTHERN INDIANA

CITY           SKY/WX    TMP DP  RH WIND       PRES   REMARKS
GARY*          MOSUNNY   73  66  78 S6        30.04R
SOUTH BEND     SUNNY     75  61  61 S6        30.06F
GOSHEN         SUNNY     75  58  55 SW7       30.08R
ANGOLA*        SUNNY     73  61  64 S7        30.09S
FORT WAYNE     PTSUNNY   71  57  61 S9        30.11R

$$
INZ028>050-251500-
CENTRAL INDIANA

CITY           SKY/WX    TMP DP  RH WIND       PRES   REMARKS
LAFAYETTE      SUNNY     73  60  63 S9        30.07R
KOKOMO*        CLOUDY    68  57  68 S12       30.09F
MUNCIE*        CLOUDY    72  56  57 S7        30.11R
INDIANAPOLIS   PTSUNNY   73  61  65 S9        30.08S

$$
MIZ043>046-050>051-056>058-064>065-071>073-077>080-251500-
SOUTHWEST LOWER MICHIGAN

CITY           SKY/WX    TMP DP  RH WIND       PRES   REMARKS
BATTLE CREEK   SUNNY     74  58  57 S8        30.09R
BENTON HARBOR  SUNNY     76  62  62 S5        30.04F
COLDWATER*     SUNNY     75  58  53 SW3       30.10R
HILLSDALE*     SUNNY     74  50  42 SW7       30.11R
HOLLAND        SUNNY     76  62  62 SW10      30.05S
GRAND RAPIDS   MOSUNNY   77  61  57 SW12      30.06R
KALAMAZOO      SUNNY     75  58  55 S7        30.08R
STURGIS*       SUNNY     74  58  58 SW5       30.08S
THREE RIVERS*  FAIR      75  57  54 SW3       30.09R

$$
OHZ001>008-015>018-024>025-251500-
NORTHWEST OHIO

CITY           SKY/WX    TMP DP  RH WIND       PRES   REMARKS
DEFIANCE       SUNNY     77  57  50 S10       30.11R
FINDLAY        PTSUNNY   74  53  48 SW13      30.11R
TOLEDO EXPRESS SUNNY     76  56  49 SW7       30.09R
TOLEDO METCALF SUNNY     76  56  49 SW8       30.10R
LIMA           CLOUDY    71  55  56 S9        30.12R

$$
AND FOR LAKE MICHIGAN COASTAL AND OPEN LAKE BUOY OBSERVATIONS

STATION/POSITION TEMP    WIND        PRES    VSBY  WAVE
                 AIR SEA DIR/SP/G                  HT/PER
                 (F)     (DEG/KT/KT) (MB)    (MI)  (FT/S)
CALUMET HARBOR    72     200/  6/  8 1016.1R
MICHIGAN CITY     71     160/  8/ 10   N/A
BURNS HARBOR      72     180/  8/ 11 1017.6R
SAINT JOSEPH      72     160/  3/  7 1018.3R
SOUTH LAKE BUOY   53 49  170/ 10/ 10 1016.2          1
4 MI NW BRIDGMAN  62 59  190/  2/  4   N/A           1
MICHIGAN CITY     63 57  190/  2/  4   N/A           0

$$
&&




USA.gov is the U.S. government's official web portal to all federal, state and local government web resources and services.